Погода в Узене

Россия / Томская область     57°17′56″N   86°12′20″E
темп.,
°C
ветер,
м/с
пор.,
м/с
влажн.,
%
обл.,
%
осадки,
мм/ч
давл.,
гПа
погр.,
м
4 марта, чт
чт401:00−14ю379696 0.1 1020230
04:00−14ю4109590 0.0 1019327
07:00−14ю5139295 0.1 1019517
10:00−12ю61288100 0.0 1018609
13:00−9ю71292100 0.4 1017733
16:00−7ююз71390100 0.6 1016844
19:00−6ю61390100 0.8 1015742
22:00−5ююз61391100 0.2 1013778
5 марта, пт
пт501:00−5ююз51391100 0.2 1012788
04:00−5ю61490100 0.1 1010679
07:00−7ююз61391100 0.2 1009605
10:00−5ююз61489100 0.1 1009683
13:00−4ююз71286100 0.1 1008846
16:00−3ююз71291100 0.4 10061007
19:00−3ююз51393100 0.6 1009941
22:00−6юз6148694 0.1 1011805
6 марта, сб
сб601:00−6ююз5138998 0.1 1012804
04:00−6ююз61293100 0.5 10111013
07:00−5ююз61394100 0.9 1011968
10:00−4юз71391100 0.4 10091035
13:00−4юз71293100 1.0 1009973
16:00−4юз71293100 1.1 10081081
19:00−5ююз61291100 1.8 1008972
22:00−5ююз61390100 0.1 1006885
7 марта, вс
вс701:00−4юз61492100 0.2 10061093
04:00−6зюз5158239 0.1 1007672
07:00−10зюз4129022 0.1 1011426
10:00−10зюз5119035 0.0 1012566
13:00−7зюз598152 0.0 1015799
16:00−6юз477991 0.0 1015902
19:00−8ю238995 0.0 101588
22:00−7вюв3596100 0.3 1013173
8 марта, пн
пн801:00−3ю51296100 1.8 1010782
04:00−2ююз61293100 1.0 1007795
07:00−2ююз61395100 1.7 1006981
10:00−1ююз71390100 0.2 1004959
13:00−1юз61292100 0.4 1005813
16:00−1юз61095100 1.0 1006737
19:00−2з3797100 2.1 1007444
22:00−6ссз3796100 1.1 1009373